Martinsburg, WV

9:39 PM EST on December 08, 2019 (GMT -0500)
Eastern W Va Regional-Shepherd

Weather History for KMRB - October, 2019

Change the Weather History Date:

Wednesday, October 30, 2019

  Actual Average Record
Temperature  
Mean Temperature 57 °F 50 °F  
Max Temperature 64 °F 61 °F 84 °F (1996)
Min Temperature 50 °F 38 °F 18 °F (1969)
Degree Days  
Heating Degree Days 8 15  
Month to date heating degree days 257 338  
Since 1 July heating degree days 269 429  
Cooling Degree Days 0 0  
Month to date cooling degree days 39 8  
Year to date cooling degree days 1282 893  
Growing Degree Days 7 (Base 50)    
Moisture  
Dew Point 54 °F    
Average Humidity 91    
Maximum Humidity 100    
Minimum Humidity 73    
Precipitation  
Precipitation 0.47 in 0.09 in 1.18 in (1970)
Month to date precipitation 4.05 2.95  
Year to date precipitation 38.95 32.76  
Sea Level Pressure  
Sea Level Pressure 30.17 in    
Wind  
Wind Speed 2 mph ()    
Max Wind Speed 12 mph    
Max Gust Speed 15 mph    
Visibility 6.4 miles    
Events Rain    
T = Trace of Precipitation, MM = Missing Value Source: Averaged Metar Reports

Daily Weather History Graph

Daily Weather History Graph

Search for Another Location

Airport or City:

Astronomy

Oct. 30, 2019 Rise Set
Actual Time 7:37 AM EDT 6:13 PM EDT
Civil Twilight 7:09 AM EDT 6:40 PM EDT
Nautical Twilight 6:38 AM EDT 7:12 PM EDT
Astronomical Twilight 6:06 AM EDT 7:43 PM EDT
Moon 10:17 AM EDT (10/30) 8:20 PM EDT (10/30)
Length of Visible Light 11h 31m
Length of Day
10h 35m
Waxing Crescent, 8% of the Moon is Illuminated
Oct 30
Waxing Crescent
Nov 4
First Quarter
Nov 12
Full
Nov 19
Last Quarter
Nov 26
New

Hourly Weather History & Observations

Time (EDT) Temp. Dew Point Humidity Pressure Visibility Wind Dir Wind Speed Gust Speed Precip Events Conditions
12:00 AM 52.0 °F 51.1 °F 97% 30.24 in 3.0 mi Calm Calm - N/A   Clear
12:10 AM 51.1 °F 51.1 °F 100% 30.24 in 1.8 mi Calm Calm - N/A   Clear
12:19 AM 52.0 °F 51.1 °F 97% 30.24 in 3.0 mi Calm Calm - N/A   Clear
12:53 AM 50.0 °F 50.0 °F 100% 30.24 in 2.5 mi Calm Calm - N/A   Clear
1:01 AM 51.1 °F 50.0 °F 96% 30.24 in 0.8 mi Calm Calm - N/A   Clear
1:14 AM 51.1 °F 50.0 °F 96% 30.24 in 2.0 mi Calm Calm - N/A   Clear
1:22 AM 51.1 °F 51.1 °F 100% 30.24 in 6.0 mi Calm Calm - N/A   Clear
1:40 AM 51.1 °F 50.0 °F 96% 30.24 in 2.0 mi Calm Calm - N/A   Clear
1:49 AM 51.8 °F 50.0 °F 94% 30.24 in 7.0 mi Calm Calm - N/A   Clear
1:53 AM 51.1 °F 50.0 °F 96% 30.24 in 7.0 mi Calm Calm - N/A   Clear
2:23 AM 51.1 °F 50.0 °F 96% 30.24 in 6.0 mi Calm Calm - N/A   Mostly Cloudy
2:34 AM 51.1 °F 50.0 °F 96% 30.23 in 4.0 mi Calm Calm - N/A   Scattered Clouds
2:42 AM 50.0 °F 48.9 °F 96% 30.23 in 4.0 mi Calm Calm - N/A   Mostly Cloudy
2:53 AM 51.1 °F 50.0 °F 96% 30.23 in 4.0 mi Calm Calm - N/A   Mostly Cloudy
3:53 AM 54.0 °F 52.0 °F 93% 30.23 in 9.0 mi NNW 3.5 mph - N/A   Overcast
4:53 AM 54.0 °F 52.0 °F 93% 30.23 in 9.0 mi Calm Calm - N/A   Overcast
5:53 AM 55.0 °F 53.1 °F 93% 30.23 in 9.0 mi Calm Calm - N/A   Overcast
6:53 AM 55.0 °F 53.1 °F 93% 30.23 in 9.0 mi Calm Calm - N/A   Overcast
8:53 AM 55.9 °F 54.0 °F 93% 30.25 in 9.0 mi Calm Calm - N/A   Overcast
9:53 AM 57.0 °F 54.0 °F 89% 30.25 in 6.0 mi Calm Calm - N/A   Overcast
10:27 AM 60.1 °F 54.0 °F 80% 30.25 in 10.0 mi Calm Calm - N/A   Overcast
10:53 AM 60.1 °F 55.0 °F 83% 30.24 in 10.0 mi East 3.5 mph - N/A   Overcast
11:53 AM 62.1 °F 55.0 °F 78% 30.23 in 10.0 mi Variable 4.6 mph - N/A   Overcast
12:14 PM 63.0 °F 55.9 °F 78% 30.22 in 10.0 mi SE 3.5 mph - N/A   Overcast
12:53 PM 64.0 °F 55.9 °F 75% 30.20 in 10.0 mi South 5.8 mph - N/A   Overcast
1:53 PM 64.0 °F 55.9 °F 75% 30.17 in 10.0 mi Variable 5.8 mph - N/A   Mostly Cloudy
2:34 PM 64.0 °F 55.9 °F 75% 30.15 in 10.0 mi South 6.9 mph - N/A   Mostly Cloudy
2:53 PM 64.0 °F 55.0 °F 73% 30.15 in 10.0 mi SSE 6.9 mph - N/A   Overcast
3:15 PM 64.0 °F 55.9 °F 75% 30.14 in 10.0 mi SSE 6.9 mph - N/A   Overcast
3:53 PM 63.0 °F 55.0 °F 75% 30.13 in 10.0 mi SSE 6.9 mph - N/A   Overcast
4:10 PM 63.0 °F 55.0 °F 75% 30.13 in 10.0 mi SE 8.1 mph - N/A   Overcast
4:39 PM 62.1 °F 55.9 °F 80% 30.13 in 10.0 mi SSE 6.9 mph - 0.00 in Rain Light Rain
4:53 PM 61.0 °F 55.9 °F 83% 30.13 in 10.0 mi SSE 3.5 mph - 0.00 in Rain Light Rain
5:53 PM 59.0 °F 57.9 °F 96% 30.12 in 3.0 mi Calm Calm - 0.07 in Rain Rain
6:00 PM 59.0 °F 57.9 °F 96% 30.11 in 2.0 mi Calm Calm - 0.02 in Rain Rain
6:33 PM 59.0 °F 57.9 °F 96% 30.11 in 4.0 mi Calm Calm - 0.08 in Rain Light Rain
6:40 PM 59.0 °F 57.9 °F 96% 30.11 in 4.0 mi Calm Calm - 0.09 in Rain Rain
6:53 PM 59.0 °F 57.9 °F 96% 30.11 in 4.0 mi Calm Calm - 0.11 in Rain Light Rain
7:10 PM 59.0 °F 57.9 °F 96% 30.10 in 3.0 mi Calm Calm - 0.03 in Rain Light Rain
7:53 PM 59.0 °F 57.9 °F 96% 30.09 in 4.0 mi SE 6.9 mph - 0.08 in Rain Light Rain
8:20 PM 59.0 °F 57.9 °F 96% 30.08 in 2.5 mi SE 6.9 mph - 0.05 in Rain Rain
8:44 PM 59.0 °F 57.9 °F 96% 30.07 in 3.0 mi SE 6.9 mph - 0.09 in Rain Rain
8:53 PM 57.9 °F 57.9 °F 100% 30.06 in 4.0 mi SE 4.6 mph - 0.10 in Rain Light Rain
9:05 PM 59.0 °F 57.9 °F 96% 30.06 in 5.0 mi SSE 5.8 mph - 0.00 in Rain Light Rain
9:22 PM 59.0 °F 57.9 °F 96% 30.06 in 5.0 mi SSE 4.6 mph - 0.01 in Rain Light Rain
9:53 PM 59.0 °F 57.9 °F 96% 30.06 in 10.0 mi SSE 4.6 mph - 0.02 in Rain Light Rain
10:53 PM 59.0 °F 57.9 °F 96% 30.04 in 10.0 mi SSE 6.9 mph - 0.02 in Rain Light Rain
11:03 PM 59.0 °F 57.9 °F 96% 30.03 in 10.0 mi SE 6.9 mph - 0.00 in   Overcast
11:53 PM 59.0 °F 57.9 °F 96% 30.00 in 5.0 mi ESE 3.5 mph - 0.00 in Rain Light Rain